Time,TemperatureF,DewpointF,PressureIn,WindDirection,WindDirectionDegrees,WindSpeedMPH,WindSpeedGustMPH,Humidity,HourlyPrecipIn,Conditions,Clouds,dailyrainin,SoftwareType,DateUTC
2013-01-15 00:03:00,62.0,61.0,30.14,East,85,0.0,0.0,95,0.00,,,0.00,,2013-01-15 05:03:00,
2013-01-15 00:12:00,61.0,60.0,30.14,East,85,0.0,0.0,95,0.00,,,0.00,,2013-01-15 05:12:00,
2013-01-15 00:22:00,61.0,60.0,30.14,East,85,0.0,0.0,95,0.00,,,0.00,,2013-01-15 05:22:00,
2013-01-15 00:33:00,61.0,60.0,30.14,East,85,0.0,0.0,96,0.00,,,0.00,,2013-01-15 05:33:00,
2013-01-15 00:42:00,61.0,60.0,30.14,East,85,0.0,0.0,96,0.00,,,0.00,,2013-01-15 05:42:00,
2013-01-15 00:53:00,61.0,60.0,30.14,East,85,0.0,0.0,96,0.00,,,0.00,,2013-01-15 05:53:00,
2013-01-15 01:02:00,60.0,59.0,30.14,East,85,0.0,0.0,96,0.00,,,0.00,,2013-01-15 06:02:00,
2013-01-15 01:12:00,60.0,59.0,30.14,East,85,0.0,0.0,96,0.00,,,0.00,,2013-01-15 06:12:00,
2013-01-15 01:22:00,60.0,59.0,30.13,East,85,0.0,0.0,96,0.00,,,0.00,,2013-01-15 06:22:00,
2013-01-15 01:33:00,60.0,59.0,30.13,East,85,0.0,0.0,96,0.00,,,0.00,,2013-01-15 06:33:00,
2013-01-15 01:43:00,60.0,59.0,30.13,East,85,0.0,0.0,96,0.00,,,0.00,,2013-01-15 06:43:00,
2013-01-15 01:53:00,59.0,58.0,30.12,East,85,0.0,0.0,96,0.00,,,0.00,,2013-01-15 06:53:00,
2013-01-15 02:02:00,59.0,58.0,30.12,East,85,0.0,0.0,97,0.00,,,0.00,,2013-01-15 07:02:00,
2013-01-15 02:12:00,59.0,58.0,30.12,East,85,0.0,0.0,97,0.00,,,0.00,,2013-01-15 07:12:00,
2013-01-15 02:22:00,59.0,58.0,30.12,East,85,0.0,0.0,97,0.00,,,0.00,,2013-01-15 07:22:00,
2013-01-15 02:33:00,58.0,57.0,30.12,East,85,0.0,0.0,97,0.00,,,0.00,,2013-01-15 07:33:00,
2013-01-15 02:42:00,58.0,57.0,30.12,East,85,0.0,0.0,97,0.00,,,0.00,,2013-01-15 07:42:00,
2013-01-15 02:53:00,59.0,58.0,30.12,East,85,0.0,0.0,97,0.00,,,0.00,,2013-01-15 07:53:00,
2013-01-15 03:02:00,59.0,58.0,30.12,East,85,0.0,0.0,97,0.00,,,0.00,,2013-01-15 08:02:00,
2013-01-15 03:12:00,59.0,58.0,30.12,East,85,0.0,0.0,97,0.00,,,0.00,,2013-01-15 08:12:00,
2013-01-15 03:22:00,58.0,57.0,30.12,East,85,0.0,0.0,97,0.00,,,0.00,,2013-01-15 08:22:00,
2013-01-15 03:33:00,58.0,57.0,30.12,East,85,0.0,0.0,97,0.00,,,0.00,,2013-01-15 08:33:00,
2013-01-15 03:42:00,58.0,57.0,30.12,East,85,0.0,0.0,97,0.00,,,0.00,,2013-01-15 08:42:00,
2013-01-15 03:53:00,58.0,57.0,30.11,East,85,0.0,0.0,97,0.00,,,0.00,,2013-01-15 08:53:00,
2013-01-15 04:02:00,58.0,57.0,30.11,East,85,0.0,0.0,97,0.00,,,0.00,,2013-01-15 09:02:00,
2013-01-15 04:12:00,58.0,57.0,30.11,East,85,0.0,0.0,97,0.00,,,0.00,,2013-01-15 09:12:00,
2013-01-15 04:22:00,58.0,57.0,30.11,East,85,0.0,0.0,97,0.00,,,0.00,,2013-01-15 09:22:00,
2013-01-15 04:33:00,58.0,57.0,30.11,East,85,0.0,0.0,97,0.00,,,0.00,,2013-01-15 09:33:00,
2013-01-15 04:42:00,58.0,57.0,30.11,East,85,0.0,0.0,97,0.00,,,0.00,,2013-01-15 09:42:00,
2013-01-15 04:52:00,57.0,56.0,30.10,East,85,0.0,0.0,97,0.00,,,0.00,,2013-01-15 09:52:00,
2013-01-15 05:02:00,57.0,56.0,30.11,East,85,0.0,0.0,97,0.00,,,0.00,,2013-01-15 10:02:00,
2013-01-15 05:12:00,57.0,56.0,30.11,East,85,0.0,0.0,97,0.00,,,0.00,,2013-01-15 10:12:00,
2013-01-15 05:22:00,57.0,56.0,30.11,East,85,0.0,0.0,98,0.00,,,0.00,,2013-01-15 10:22:00,
2013-01-15 05:32:00,57.0,56.0,30.11,East,85,0.0,0.0,98,0.00,,,0.00,,2013-01-15 10:32:00,
2013-01-15 05:42:00,57.0,56.0,30.11,East,85,0.0,0.0,98,0.00,,,0.00,,2013-01-15 10:42:00,
2013-01-15 05:52:00,57.0,56.0,30.11,East,85,0.0,0.0,98,0.00,,,0.00,,2013-01-15 10:52:00,
2013-01-15 06:02:00,57.0,56.0,30.11,East,85,0.0,0.0,98,0.00,,,0.00,,2013-01-15 11:02:00,
2013-01-15 06:12:00,57.0,56.0,30.11,East,85,0.0,0.0,97,0.00,,,0.00,,2013-01-15 11:12:00,
2013-01-15 06:22:00,57.0,56.0,30.11,East,85,0.0,0.0,97,0.00,,,0.00,,2013-01-15 11:22:00,
2013-01-15 06:33:00,57.0,56.0,30.11,East,85,0.0,0.0,98,0.00,,,0.00,,2013-01-15 11:33:00,
2013-01-15 06:42:00,57.0,56.0,30.11,East,85,0.0,0.0,98,0.00,,,0.00,,2013-01-15 11:42:00,
2013-01-15 06:53:00,57.0,56.0,30.11,East,85,0.0,0.0,98,0.00,,,0.00,,2013-01-15 11:53:00,
2013-01-15 07:03:00,58.0,57.0,30.11,East,85,0.0,0.0,98,0.00,,,0.00,,2013-01-15 12:03:00,
2013-01-15 07:12:00,58.0,57.0,30.11,East,85,0.0,0.0,98,0.00,,,0.00,,2013-01-15 12:12:00,
2013-01-15 07:22:00,58.0,57.0,30.11,East,85,0.0,0.0,98,0.00,,,0.00,,2013-01-15 12:22:00,
2013-01-15 07:33:00,59.0,58.0,30.12,East,85,0.0,0.0,98,0.00,,,0.00,,2013-01-15 12:33:00,
2013-01-15 07:43:00,59.0,58.0,30.12,East,85,0.0,0.0,98,0.00,,,0.00,,2013-01-15 12:43:00,
2013-01-15 07:53:00,59.0,58.0,30.13,East,85,0.0,0.0,98,0.00,,,0.00,,2013-01-15 12:53:00,
2013-01-15 08:03:00,60.0,59.0,30.13,East,85,0.0,0.0,98,0.00,,,0.00,,2013-01-15 13:03:00,
2013-01-15 08:12:00,60.0,59.0,30.13,East,85,0.0,0.0,98,0.00,,,0.00,,2013-01-15 13:12:00,
2013-01-15 08:23:00,61.0,61.0,30.14,East,85,0.0,0.0,99,0.00,,,0.00,,2013-01-15 13:23:00,
2013-01-15 08:33:00,63.0,63.0,30.14,East,85,0.0,0.0,99,0.00,,,0.00,,2013-01-15 13:33:00,
2013-01-15 08:43:00,63.0,63.0,30.14,East,85,0.0,0.0,99,0.00,,,0.00,,2013-01-15 13:43:00,
2013-01-15 08:53:00,65.0,65.0,30.14,East,85,0.0,0.0,99,0.00,,,0.00,,2013-01-15 13:53:00,
2013-01-15 09:03:00,66.0,66.0,30.14,East,85,0.0,0.0,99,0.00,,,0.00,,2013-01-15 14:03:00,
2013-01-15 09:12:00,66.0,66.0,30.14,East,85,0.0,0.0,99,0.00,,,0.00,,2013-01-15 14:12:00,
2013-01-15 09:23:00,68.0,68.0,30.14,East,85,0.0,0.0,99,0.00,,,0.00,,2013-01-15 14:23:00,
2013-01-15 09:33:00,69.0,69.0,30.14,East,85,0.0,0.0,99,0.00,,,0.00,,2013-01-15 14:33:00,
2013-01-15 09:43:00,69.0,69.0,30.14,East,85,0.0,0.0,99,0.00,,,0.00,,2013-01-15 14:43:00,
2013-01-15 09:54:00,70.0,70.0,30.14,East,85,1.0,3.0,99,0.00,,,0.00,,2013-01-15 14:54:00,
2013-01-15 10:03:00,72.0,70.0,30.14,ESE,106,2.0,3.0,94,0.00,,,0.00,,2013-01-15 15:03:00,
2013-01-15 10:12:00,72.0,70.0,30.14,ESE,106,2.0,3.0,94,0.00,,,0.00,,2013-01-15 15:12:00,
2013-01-15 10:23:00,75.0,70.0,30.14,East,100,2.0,5.0,84,0.00,,,0.00,,2013-01-15 15:23:00,
2013-01-15 10:33:00,76.0,69.0,30.14,East,89,3.0,5.0,79,0.00,,,0.00,,2013-01-15 15:33:00,
2013-01-15 10:43:00,76.0,69.0,30.14,East,89,3.0,5.0,79,0.00,,,0.00,,2013-01-15 15:43:00,
2013-01-15 10:53:00,78.0,69.0,30.13,East,93,3.0,9.0,75,0.00,,,0.00,,2013-01-15 15:53:00,
2013-01-15 11:03:00,77.0,68.0,30.12,East,80,1.0,5.0,75,0.00,,,0.00,,2013-01-15 16:03:00,
2013-01-15 11:12:00,77.0,68.0,30.12,East,80,1.0,5.0,75,0.00,,,0.00,,2013-01-15 16:12:00,
2013-01-15 11:23:00,77.0,65.0,30.11,ENE,66,3.0,5.0,67,0.00,,,0.00,,2013-01-15 16:23:00,
2013-01-15 11:33:00,78.0,66.0,30.11,East,101,2.0,3.0,67,0.00,,,0.00,,2013-01-15 16:33:00,
2013-01-15 11:43:00,78.0,66.0,30.11,East,101,2.0,3.0,67,0.00,,,0.00,,2013-01-15 16:43:00,
2013-01-15 11:53:00,78.0,65.0,30.11,ESE,120,3.0,7.0,65,0.00,,,0.00,,2013-01-15 16:53:00,
2013-01-15 12:03:00,78.0,66.0,30.10,East,90,2.0,6.0,67,0.00,,,0.00,,2013-01-15 17:03:00,
2013-01-15 12:12:00,78.0,66.0,30.10,East,90,2.0,6.0,67,0.00,,,0.00,,2013-01-15 17:12:00,
2013-01-15 12:22:00,78.0,66.0,30.10,East,101,5.0,7.0,66,0.00,,,0.00,,2013-01-15 17:22:00,
2013-01-15 12:33:00,79.0,68.0,30.09,ESE,123,3.0,6.0,69,0.00,,,0.00,,2013-01-15 17:33:00,
2013-01-15 12:42:00,79.0,68.0,30.09,ESE,123,3.0,6.0,69,0.00,,,0.00,,2013-01-15 17:42:00,
2013-01-15 12:53:00,78.0,69.0,30.08,East,95,6.0,12.0,75,0.00,,,0.00,,2013-01-15 17:53:00,
2013-01-15 13:03:00,78.0,69.0,30.07,East,90,6.0,12.0,73,0.00,,,0.00,,2013-01-15 18:03:00,
2013-01-15 13:13:00,78.0,69.0,30.07,East,90,6.0,12.0,73,0.00,,,0.00,,2013-01-15 18:13:00,
2013-01-15 13:23:00,77.0,68.0,30.07,East,98,5.0,7.0,73,0.00,,,0.00,,2013-01-15 18:23:00,
2013-01-15 13:33:00,77.0,68.0,30.06,East,85,4.0,12.0,74,0.00,,,0.00,,2013-01-15 18:33:00,
2013-01-15 13:43:00,77.0,68.0,30.06,East,85,4.0,12.0,74,0.00,,,0.00,,2013-01-15 18:43:00,
2013-01-15 13:53:00,77.0,68.0,30.06,East,101,3.0,8.0,74,0.00,,,0.00,,2013-01-15 18:53:00,
2013-01-15 14:03:00,77.0,68.0,30.05,ESE,107,7.0,12.0,75,0.00,,,0.00,,2013-01-15 19:03:00,
2013-01-15 14:12:00,77.0,68.0,30.05,ESE,107,7.0,12.0,75,0.00,,,0.00,,2013-01-15 19:12:00,
2013-01-15 14:23:00,77.0,68.0,30.05,SE,141,3.0,6.0,75,0.00,,,0.00,,2013-01-15 19:23:00,
2013-01-15 14:33:00,76.0,67.0,30.05,East,84,3.0,8.0,75,0.00,,,0.00,,2013-01-15 19:33:00,
2013-01-15 14:42:00,76.0,67.0,30.05,East,84,3.0,8.0,75,0.00,,,0.00,,2013-01-15 19:42:00,
2013-01-15 14:53:00,76.0,68.0,30.05,ESE,103,3.0,9.0,77,0.00,,,0.00,,2013-01-15 19:53:00,
2013-01-15 15:03:00,76.0,68.0,30.05,ESE,123,6.0,9.0,77,0.00,,,0.00,,2013-01-15 20:03:00,
2013-01-15 15:12:00,76.0,68.0,30.05,ESE,123,6.0,9.0,77,0.00,,,0.00,,2013-01-15 20:12:00,
2013-01-15 15:23:00,75.0,68.0,30.05,East,86,5.0,8.0,78,0.00,,,0.00,,2013-01-15 20:23:00,
2013-01-15 15:33:00,75.0,68.0,30.05,East,89,3.0,10.0,79,0.00,,,0.00,,2013-01-15 20:33:00,
2013-01-15 15:43:00,75.0,68.0,30.05,East,89,3.0,10.0,79,0.00,,,0.00,,2013-01-15 20:43:00,
2013-01-15 15:53:00,75.0,67.0,30.06,ESE,111,4.0,8.0,77,0.00,,,0.00,,2013-01-15 20:53:00,
2013-01-15 16:03:00,75.0,67.0,30.06,SE,141,2.0,9.0,76,0.00,,,0.00,,2013-01-15 21:03:00,
2013-01-15 16:13:00,75.0,67.0,30.06,SE,141,2.0,9.0,76,0.00,,,0.00,,2013-01-15 21:13:00,
2013-01-15 16:23:00,75.0,67.0,30.06,East,82,2.0,3.0,77,0.00,,,0.00,,2013-01-15 21:23:00,
2013-01-15 16:33:00,76.0,67.0,30.06,East,101,6.0,9.0,75,0.00,,,0.00,,2013-01-15 21:33:00,
2013-01-15 16:43:00,76.0,67.0,30.06,East,101,6.0,9.0,75,0.00,,,0.00,,2013-01-15 21:43:00,
2013-01-15 16:53:00,76.0,68.0,30.07,East,97,4.0,7.0,76,0.00,,,0.00,,2013-01-15 21:53:00,
2013-01-15 17:03:00,75.0,67.0,30.07,East,89,5.0,10.0,77,0.00,,,0.00,,2013-01-15 22:03:00,
2013-01-15 17:12:00,75.0,67.0,30.07,East,89,5.0,10.0,77,0.00,,,0.00,,2013-01-15 22:12:00,
2013-01-15 17:23:00,75.0,67.0,30.07,ESE,103,1.0,6.0,77,0.00,,,0.00,,2013-01-15 22:23:00,
2013-01-15 17:33:00,74.0,67.0,30.07,East,100,1.0,3.0,79,0.00,,,0.00,,2013-01-15 22:33:00,
2013-01-15 17:43:00,74.0,67.0,30.07,East,100,1.0,3.0,79,0.00,,,0.00,,2013-01-15 22:43:00,
2013-01-15 17:53:00,73.0,66.0,30.08,ESE,116,2.0,3.0,80,0.00,,,0.00,,2013-01-15 22:53:00,
2013-01-15 18:02:00,72.0,66.0,30.08,ESE,109,0.0,1.0,82,0.00,,,0.00,,2013-01-15 23:02:00,
2013-01-15 18:13:00,72.0,66.0,30.08,ESE,109,0.0,1.0,82,0.00,,,0.00,,2013-01-15 23:13:00,
2013-01-15 18:22:00,71.0,66.0,30.08,ESE,102,1.0,3.0,84,0.00,,,0.00,,2013-01-15 23:22:00,
2013-01-15 18:33:00,70.0,65.0,30.08,SE,135,0.0,0.0,85,0.00,,,0.00,,2013-01-15 23:33:00,
2013-01-15 18:43:00,70.0,65.0,30.08,SE,135,0.0,0.0,85,0.00,,,0.00,,2013-01-15 23:43:00,
2013-01-15 18:53:00,70.0,66.0,30.08,SE,135,0.0,0.0,86,0.00,,,0.00,,2013-01-15 23:53:00,
2013-01-15 19:03:00,69.0,65.0,30.08,SE,135,0.0,0.0,88,0.00,,,0.00,,2013-01-16 00:03:00,
2013-01-15 19:13:00,69.0,65.0,30.08,SE,135,0.0,0.0,88,0.00,,,0.00,,2013-01-16 00:13:00,
2013-01-15 19:22:00,68.0,65.0,30.08,SE,135,0.0,0.0,89,0.00,,,0.00,,2013-01-16 00:22:00,
2013-01-15 19:33:00,68.0,65.0,30.08,SE,135,0.0,0.0,89,0.00,,,0.00,,2013-01-16 00:33:00,
2013-01-15 19:43:00,68.0,65.0,30.08,SE,135,0.0,0.0,89,0.00,,,0.00,,2013-01-16 00:43:00,
2013-01-15 19:53:00,67.0,64.0,30.08,SE,135,0.0,1.0,90,0.00,,,0.00,,2013-01-16 00:53:00,
2013-01-15 20:03:00,67.0,64.0,30.07,SE,134,0.0,0.0,91,0.00,,,0.00,,2013-01-16 01:03:00,
2013-01-15 20:12:00,67.0,64.0,30.07,SE,134,0.0,0.0,91,0.00,,,0.00,,2013-01-16 01:12:00,
2013-01-15 20:22:00,67.0,64.0,30.07,SE,134,0.0,0.0,90,0.00,,,0.00,,2013-01-16 01:22:00,
2013-01-15 20:33:00,66.0,63.0,30.07,SE,134,0.0,0.0,91,0.00,,,0.00,,2013-01-16 01:33:00,
2013-01-15 20:42:00,66.0,63.0,30.07,SE,134,0.0,0.0,91,0.00,,,0.00,,2013-01-16 01:42:00,
2013-01-15 20:53:00,65.0,62.0,30.07,SE,134,0.0,0.0,91,0.00,,,0.00,,2013-01-16 01:53:00,
2013-01-15 21:03:00,64.0,62.0,30.07,SE,134,0.0,0.0,93,0.00,,,0.00,,2013-01-16 02:03:00,
2013-01-15 21:12:00,64.0,62.0,30.07,SE,134,0.0,0.0,93,0.00,,,0.00,,2013-01-16 02:12:00,
2013-01-15 21:22:00,64.0,62.0,30.06,SE,134,0.0,0.0,92,0.00,,,0.00,,2013-01-16 02:22:00,
2013-01-15 21:32:00,63.0,61.0,30.06,SE,134,0.0,0.0,93,0.00,,,0.00,,2013-01-16 02:32:00,
2013-01-15 21:42:00,63.0,61.0,30.06,SE,134,0.0,0.0,93,0.00,,,0.00,,2013-01-16 02:42:00,
2013-01-15 21:53:00,63.0,61.0,30.06,SE,134,0.0,0.0,94,0.00,,,0.00,,2013-01-16 02:53:00,
2013-01-15 22:03:00,62.0,60.0,30.06,SE,134,0.0,0.0,94,0.00,,,0.00,,2013-01-16 03:03:00,
2013-01-15 22:12:00,61.0,60.0,30.06,SE,134,0.0,0.0,95,0.00,,,0.00,,2013-01-16 03:12:00,
2013-01-15 22:22:00,61.0,60.0,30.06,SE,134,0.0,0.0,95,0.00,,,0.00,,2013-01-16 03:22:00,
2013-01-15 22:33:00,61.0,59.0,30.06,SE,134,0.0,0.0,94,0.00,,,0.00,,2013-01-16 03:33:00,
2013-01-15 22:43:00,61.0,59.0,30.06,SE,134,0.0,0.0,94,0.00,,,0.00,,2013-01-16 03:43:00,
2013-01-15 22:53:00,60.0,59.0,30.06,SE,134,0.0,0.0,95,0.00,,,0.00,,2013-01-16 03:53:00,
2013-01-15 23:02:00,59.0,58.0,30.06,SE,134,0.0,0.0,95,0.00,,,0.00,,2013-01-16 04:02:00,
2013-01-15 23:12:00,59.0,58.0,30.06,SE,134,0.0,0.0,95,0.00,,,0.00,,2013-01-16 04:12:00,
2013-01-15 23:22:00,59.0,58.0,30.06,SE,134,0.0,0.0,95,0.00,,,0.00,,2013-01-16 04:22:00,
2013-01-15 23:33:00,59.0,58.0,30.06,SE,134,0.0,0.0,96,0.00,,,0.00,,2013-01-16 04:33:00,
2013-01-15 23:42:00,59.0,58.0,30.06,SE,134,0.0,0.0,96,0.00,,,0.00,,2013-01-16 04:42:00,
2013-01-15 23:52:00,59.0,58.0,30.06,SE,134,0.0,0.0,96,0.00,,,0.00,,2013-01-16 04:52:00,